Regional Weather Roundup
Issued by NWS

Home | Current Version | Previous Version | Text Only | Print | Product List | Glossary Off
Versions: 1 2 3 4 5 6 7 8 9 10 11 12 13 14 15 16 17 18 19 20 21 22 23 24 25 26 27 28 29 30 31 32 33 34 35 36 37 38 39 40 41 42 43 44 45 46 47 48 49 50

000
ASUS43 KMKX 280900
RWRWI

WISCONSIN REGIONAL WEATHER ROUNDUP
NATIONAL WEATHER SERVICE MILWAUKEE/SULLIVAN WI
400 AM CDT THU JUL 28 2016

NOTE: "FAIR" INDICATES FEW OR NO CLOUDS BELOW 12,000 FEET WITH NO
SIGNIFICANT WEATHER AND/OR OBSTRUCTIONS TO VISIBILITY.

WIZ001-002-006>008-014>016-023>028-281000-
NORTHWEST WISCONSIN

CITY           SKY/WX    TMP DP  RH WIND       PRES   REMARKS
SUPERIOR ARPT  CLOUDY    56  56  98 CALM      30.06R
ASHLAND        MOCLDY    61  60  97 N8        30.05R
HAYWARD        CLOUDY    62  60  93 N10       30.03S
SIREN          NOT AVBL
CUMBERLAND     CLOUDY    63  61  94 N6        30.01R
RICE LAKE      CLOUDY    65  63  93 N8        30.01S
CHETEK         CLOUDY    65  64  96 NE6       29.99
LADYSMITH      CLOUDY    65  64  96 N7        30.01S
EAU CLAIRE     CLOUDY    66  65  96 NE7       29.95F
MENOMONIE      CLOUDY    66  66  99 N6        29.97S
NEW RICHMOND   CLOUDY    65  64  98 N9        30.00S
OSCEOLA        CLOUDY    64  64 100 N7        30.03S
$$

WIZ003>005-009-010-017-018-281000-
NORTH CENTRAL WISCONSIN

CITY           SKY/WX    TMP DP  RH WIND       PRES   REMARKS
MANITOWISH WTR CLOUDY    60  60 100 NE6       30.04R
ARBOR VITAE    CLOUDY    62  60  93 E5        30.03R
WOODRUFF       CLOUDY    62  60  93 E5        30.03R
RHINELANDER    CLOUDY    60  57  89 NE7       30.04R
EAGLE RIVER    CLOUDY    60  59  99 NE7       30.03S
LAND O LAKES   DRIZZLE   59  57  94 NE3       30.06S
PHILLIPS       CLOUDY    63  63  99 NE9       30.01S
TOMAHAWK       CLOUDY    62  61  96 NE7       30.01S
MEDFORD        RAIN      63  63 100 NE5       29.98S
MERRILL        DRIZZLE   63  63 100 E7        30.00R
$$

WIZ029-030-035-036-043>047-281000-
CENTRAL WISCONSIN

CITY           SKY/WX    TMP DP  RH WIND       PRES   REMARKS
WAUSAU         LGT RAIN  64  62  93 E7        29.96S
MOSINEE        DRIZZLE   63  63 100 NE10      29.97S
MARSHFIELD     CLOUDY    66  63  90 E8        29.94F
STEVENS POINT  CLOUDY    63  63  99 E7        29.96S
WAUPACA        CLOUDY    67  67  99 E5        29.96S
WAUTOMA        CLOUDY    66  65  96 E6        29.94F
WISC RAPIDS    MOCLDY    65  62  90 E8        29.95S
CAMP DOUGLAS   CLOUDY    68  66  94 E1        29.92S
$$

WIZ011>013-019>022-031-037>040-048>050-281000-
NORTHEAST WISCONSIN

CITY           SKY/WX    TMP DP  RH WIND       PRES   REMARKS
ANTIGO         RAIN      58  58  97 NE10      30.02S
SHAWANO        RAIN      64  62  92 NE8       29.98S
OCONTO         CLOUDY   N/A N/A N/A NE5       29.96S
STURGEON BAY   CLOUDY    64  61  90 NE7       29.98R
GREEN BAY      CLOUDY    66  65  96 NE8       29.96S
MANITOWOC      NOT AVBL
APPLETON       CLOUDY    66  66 100 NE8       29.95S
CLINTONVILLE   LGT RAIN  63  63 100 NE6       29.97S
OSHKOSH        CLOUDY    70  66  87 E13       29.94R
$$

WIZ032>034-041-042-053>061-281000-
SOUTHWEST WISCONSIN

CITY           SKY/WX    TMP DP  RH WIND       PRES   REMARKS
LA CROSSE      CLOUDY    70  66  87 N7        29.91R
SPARTA         CLOUDY    65  65  99 CALM      29.92S
VIROQUA        CLOUDY    67  67 100 CALM      29.92F
BOSCOBEL       FOG       69  68  96 CALM      29.90F VSB 1/4
PRAIRIE DU CHI CLOUDY    67  66  94 CALM      29.89F FOG
PLATTEVILLE    CLEAR     65  65 100 N3        29.91S
$$

WIZ056-057-062-063-064-067-068-281000-
SOUTH CENTRAL WISCONSIN

CITY           SKY/WX    TMP DP  RH WIND       PRES   REMARKS
REEDSBURG      CLOUDY    69  69 100 E6        29.91S
BARABOO/DELLS  MOCLDY    68  66  94 E7        29.92S
LONE ROCK      FOG       65  64  97 CALM      29.91S VSB 1/4
MINERAL POINT  CLEAR     68  66  94 CALM      29.92S
MADISON        PTCLDY    69  66  90 E3        29.91R
MIDDLETON      CLOUDY    69  69 100 CALM      29.91S
WATERTOWN      MOCLDY    68  68 100 E6        29.91S
MONROE         CLEAR     70  66  88 S3        29.91S
JANESVILLE     CLEAR     70  68  94 E3        29.90S
$$

WIZ051-052-058>065-066-070>072-281000-
SOUTHEAST WISCONSIN

CITY           SKY/WX    TMP DP  RH WIND       PRES   REMARKS
MILWAUKEE      CLOUDY    69  66  90 N9        29.92S
WAUKESHA       CLOUDY    66  64  94 E3        29.94S FOG
MILWAUKEE/TIMM RAIN      68  63  83 NE5       29.95R
RACINE         CLOUDY    70  67  90 NE3       29.93S
BURLINGTON     FOG       70  69  98 E3        29.91S VSB 3/4
KENOSHA        CLEAR     68  66  93 NE3       29.91F
FOND DU LAC    CLOUDY    69  65  86 E8        29.95R
SHEBOYGAN      CLOUDY    65  62  90 NE15      29.95S
WEST BEND      LGT RAIN  64  63  94 NE7       29.95R
JUNEAU         CLOUDY    67  65  94 N8        29.95R
$$

LSZ147-162-281000-
LAKE SUPERIOR

STATION/POSITION TIME  TEMP    WIND        PRES    WAVE
                       AIR SEA DIR/SP/G            HT/PER
                 (UTC) (F)     (DEG/KT/KT) (MB)    (FT/S)
W MID LAKE BUOY  0750   61 60  360/  8/  8 1016.9F   1
DEVILS ISLAND    0800   62      30/ 11/ 12 1017.7R
PORT WING        0740   60      80/  1/  2 1017.6R
SAXON HARBOR     0800   65      60/  6/  7 1016.6
$$

LMZ867-665-643>646-281000-
LAKE MICHIGAN

STATION/POSITION TIME  TEMP    WIND        PRES    WAVE
                       AIR SEA DIR/SP/G            HT/PER
                 (UTC) (F)     (DEG/KT/KT) (MB)    (FT/S)
CHAMBERS ISLAND  0800   66      40/ 13/ 15 1015.2F
N MID LAKE BUOY  0750   64 69   30/ 10/ 14 1015.4F   2/ 4
NORTHPORT PIER   0800   64      30/  8/ 10 1015.6F
SISTER BAY       0721   61      90/  7/ 10   N/A
ALGOMA LAKESHORE 0828           60/ 13/ 17   N/A
KEWAUNEE LAKESHO 0800   63      20/  4/  8 1013.9F
SHEBOYGAN LAKESH 0800   61      10/ 15/ 16 1014.2F
PORT WASHINGTON  0840   68      20/ 10/ 17 1014.2F
ATWATER BUOY     0800   63 64  320/  6/  6 1015.0F
MILWAUKEE LAKESH 0810   67      30/  9/ 10   N/A
S MID LAKE BUOY  0750   74 75   40/  6/  6 1012.2F   0
KENOSHA   LAKESH 0800   72      90/ 15/ 18 1012.2F
$$

TC  - TEMPERATURE IN CELSIUS
VSB - VISIBILITY IN STATUTE MILES
WCI - WIND CHILL INDEX
HX  - HEAT INDEX





USA.gov is the U.S. government's official web portal to all federal, state and local government web resources and services.